Weather History for Wrangell, AK

Change the Weather History Date:

Friday, February 21, 2014

  Actual Average Record
Temperature  
Mean Temperature 30 °F -  
Max Temperature 33 °F 40 °F 54 °F (1970)
Min Temperature 26 °F 28 °F 7 °F (1986)
Degree Days  
Heating Degree Days 36    
Moisture  
Dew Point 25 °F    
Average Humidity 78    
Maximum Humidity 86    
Minimum Humidity 69    
Precipitation  
Precipitation 0.06 in - - ()
Sea Level Pressure  
Sea Level Pressure 30.27 in    
Wind  
Wind Speed 4 mph (SE)    
Max Wind Speed 10 mph    
Max Gust Speed -    
Visibility 9 miles    
Events Snow    
Averages and records for this station are not official NWS values.
T = Trace of Precipitation, MM = Missing Value Source: NWS Daily Summary

Daily Weather History Graph

Daily Weather History Graph

Search for Another Location

Airport:

Trip Planner

Search our weather history database for the weather conditions in past years. The results will help you decide how hot, cold, wet, or windy it might be!

Date:

Astronomy

Feb. 21, 2014 Rise Set
Actual Time 7:01 AM AKST 5:05 PM AKST
Civil Twilight 6:22 AM AKST 5:44 PM AKST
Nautical Twilight 5:39 AM AKST 6:28 PM AKST
Astronomical Twilight 4:55 AM AKST 7:11 PM AKST
Moon 12:19 AM AKST (2/21) 9:13 AM AKST (2/21)
Length of Visible Light 11h 21m
Length of Day
10h 04m
Waning Gibbous, 59% of the Moon is Illuminated
Feb 21
Waning Gibbous
Feb 22
Last Quarter
Feb 28
New
Mar 8
First Quarter
Mar 16
Full

Hourly Weather History & Observations

Time (AKST) Temp. Windchill Dew Point Humidity Pressure Visibility Wind Dir Wind Speed Gust Speed Precip Events Conditions
12:16 AM 30.2 °F - 26.6 °F 86% 30.19 in 10.0 mi Calm Calm - N/A   Clear
12:36 AM 30.2 °F - 26.6 °F 86% 30.20 in 10.0 mi Calm Calm - N/A   Partly Cloudy
12:56 AM 30.2 °F - 26.6 °F 86% 30.20 in 10.0 mi Calm Calm - N/A   Clear
1:16 AM 30.2 °F 26.7 °F 26.6 °F 86% 30.21 in 10.0 mi South 3.5 mph - N/A   Mostly Cloudy
1:36 AM 30.2 °F 25.4 °F 24.8 °F 80% 30.22 in 10.0 mi SSE 4.6 mph - N/A   Mostly Cloudy
1:56 AM 30.2 °F 24.3 °F 24.8 °F 80% 30.22 in 10.0 mi SSE 5.8 mph - N/A   Overcast
2:16 AM 30.2 °F 24.3 °F 26.6 °F 86% 30.23 in 10.0 mi SE 5.8 mph - N/A   Overcast
2:36 AM 30.2 °F 24.3 °F 24.8 °F 80% 30.23 in 10.0 mi SSE 5.8 mph - N/A   Overcast
2:56 AM 30.2 °F 25.4 °F 24.8 °F 80% 30.24 in 10.0 mi SE 4.6 mph - N/A   Mostly Cloudy
3:16 AM 30.2 °F 24.3 °F 24.8 °F 80% 30.24 in 10.0 mi SSE 5.8 mph - N/A   Overcast
3:36 AM 30.2 °F 24.3 °F 24.8 °F 80% 30.24 in 10.0 mi SE 5.8 mph - N/A   Overcast
3:56 AM 30.2 °F 25.4 °F 24.8 °F 80% 30.25 in 10.0 mi South 4.6 mph - N/A   Overcast
4:16 AM 30.2 °F - 24.8 °F 80% 30.25 in 10.0 mi Calm Calm - N/A   Overcast
4:36 AM 30.2 °F 26.7 °F 24.8 °F 80% 30.26 in 10.0 mi South 3.5 mph - N/A   Overcast
4:56 AM 30.2 °F 25.4 °F 24.8 °F 80% 30.26 in 10.0 mi SE 4.6 mph - N/A   Overcast
5:16 AM 30.2 °F 25.4 °F 26.6 °F 86% 30.27 in 9.0 mi SSE 4.6 mph - N/A   Overcast
5:36 AM 30.2 °F 23.4 °F 26.6 °F 86% 30.26 in 10.0 mi SE 6.9 mph - N/A   Overcast
5:56 AM 30.2 °F 26.7 °F 26.6 °F 86% 30.27 in 10.0 mi SSE 3.5 mph - N/A   Mostly Cloudy
6:16 AM 30.2 °F 22.6 °F 26.6 °F 86% 30.27 in 10.0 mi ESE 8.1 mph - N/A   Mostly Cloudy
6:36 AM 30.2 °F 24.3 °F 26.6 °F 86% 30.27 in 3.0 mi SE 5.8 mph - N/A   Mostly Cloudy
6:56 AM 30.2 °F 21.9 °F 26.6 °F 86% 30.27 in 3.0 mi ESE 9.2 mph - N/A   Overcast
7:16 AM 30.2 °F 24.3 °F 26.6 °F 86% 30.28 in 3.0 mi SE 5.8 mph - N/A   Overcast
7:21 AM 30.2 °F 23.4 °F 24.8 °F 80% 30.28 in 2.0 mi East 6.9 mph - N/A Snow Light Snow
7:36 AM 30.2 °F 23.4 °F 26.6 °F 86% 30.28 in 2.0 mi ESE 6.9 mph - N/A   Overcast
7:56 AM 30.2 °F 22.6 °F 26.6 °F 86% 30.28 in 2.0 mi ESE 8.1 mph - N/A   Overcast
8:16 AM 30.2 °F 24.3 °F 26.6 °F 86% 30.29 in 2.0 mi East 5.8 mph - N/A   Overcast
8:36 AM 30.2 °F 22.6 °F 26.6 °F 86% 30.29 in 2.0 mi East 8.1 mph - N/A   Overcast
8:56 AM 32.0 °F 24.8 °F 26.6 °F 80% 30.29 in 2.0 mi East 8.1 mph - N/A   Overcast
9:16 AM 32.0 °F 24.8 °F 26.6 °F 80% 30.29 in 10.0 mi East 8.1 mph - N/A   Scattered Clouds
9:25 AM 32.0 °F 24.8 °F 26.6 °F 80% 30.29 in 10.0 mi ENE 8.1 mph - N/A   Overcast
9:36 AM 32.0 °F 23.6 °F 26.6 °F 80% 30.29 in 10.0 mi East 10.4 mph - N/A   Overcast
9:56 AM 32.0 °F 24.2 °F 26.6 °F 80% 30.29 in 10.0 mi East 9.2 mph - N/A   Overcast
10:16 AM 33.8 °F - 24.8 °F 70% 30.30 in 10.0 mi Calm Calm - N/A   Overcast
10:36 AM 33.8 °F 27.7 °F 24.8 °F 70% 30.30 in 10.0 mi East 6.9 mph - N/A   Overcast
10:56 AM 33.8 °F 29.6 °F 24.8 °F 70% 30.30 in 10.0 mi West 4.6 mph - N/A   Overcast
11:16 AM 32.0 °F 28.7 °F 24.8 °F 75% 30.30 in 10.0 mi West 3.5 mph - N/A   Overcast
11:36 AM 32.0 °F 28.7 °F 24.8 °F 75% 30.30 in 10.0 mi WSW 3.5 mph - N/A   Overcast
11:56 AM 32.0 °F 28.7 °F 24.8 °F 75% 30.30 in 10.0 mi NW 3.5 mph - N/A   Overcast
12:16 PM 32.0 °F 27.5 °F 26.6 °F 80% 30.30 in 10.0 mi NW 4.6 mph - N/A   Scattered Clouds
12:36 PM 32.0 °F 25.6 °F 24.8 °F 75% 30.30 in 10.0 mi NW 6.9 mph - 0.01 in   Scattered Clouds
12:56 PM 32.0 °F 25.6 °F 24.8 °F 75% 30.30 in 10.0 mi NNW 6.9 mph - 0.02 in   Scattered Clouds
1:16 PM 32.0 °F 26.4 °F 26.6 °F 80% 30.30 in 10.0 mi NNW 5.8 mph - 0.01 in   Overcast
1:36 PM 32.0 °F 27.5 °F 26.6 °F 80% 30.29 in 10.0 mi NNW 4.6 mph - 0.01 in   Overcast
1:56 PM 32.0 °F 24.8 °F 24.8 °F 75% 30.29 in 10.0 mi NNW 8.1 mph - 0.02 in   Overcast
2:16 PM 33.8 °F 27.7 °F 24.8 °F 70% 30.29 in 10.0 mi NW 6.9 mph - N/A   Overcast
2:36 PM 33.8 °F - 24.8 °F 70% 30.29 in 10.0 mi Calm Calm - N/A   Overcast
2:56 PM 33.8 °F - 24.8 °F 70% 30.29 in 10.0 mi Calm Calm - 0.01 in   Overcast
3:16 PM 33.8 °F 30.8 °F 26.6 °F 75% 30.28 in 10.0 mi SSE 3.5 mph - N/A   Overcast
3:36 PM 33.8 °F 30.8 °F 26.6 °F 75% 30.28 in 10.0 mi ESE 3.5 mph - 0.01 in   Overcast
3:56 PM 33.8 °F 29.6 °F 26.6 °F 75% 30.28 in 10.0 mi ESE 4.6 mph - 0.01 in   Mostly Cloudy
4:16 PM 33.8 °F 28.6 °F 26.6 °F 75% 30.28 in 10.0 mi East 5.8 mph - N/A   Mostly Cloudy
4:36 PM 33.8 °F 29.6 °F 24.8 °F 70% 30.28 in 10.0 mi ESE 4.6 mph - N/A   Mostly Cloudy
4:56 PM 32.0 °F 27.5 °F 24.8 °F 75% 30.28 in 10.0 mi ESE 4.6 mph - N/A   Mostly Cloudy
5:16 PM 33.8 °F 29.6 °F 24.8 °F 70% 30.27 in 10.0 mi ESE 4.6 mph - N/A   Mostly Cloudy
5:36 PM 32.0 °F 28.7 °F 24.8 °F 75% 30.27 in 10.0 mi SSE 3.5 mph - N/A   Mostly Cloudy
5:56 PM 32.0 °F - 24.8 °F 75% 30.28 in 10.0 mi Calm Calm - N/A   Scattered Clouds
6:16 PM 32.0 °F - 24.8 °F 75% 30.28 in 10.0 mi Calm Calm - N/A   Scattered Clouds
6:36 PM 30.2 °F - 24.8 °F 80% 30.28 in 10.0 mi Calm Calm - N/A   Scattered Clouds
6:56 PM 32.0 °F - 24.8 °F 75% 30.28 in 10.0 mi Calm Calm - N/A   Partly Cloudy
7:16 PM 30.2 °F - 24.8 °F 80% 30.28 in 10.0 mi Calm Calm - N/A   Partly Cloudy
7:36 PM 30.2 °F - 24.8 °F 80% 30.27 in 10.0 mi Calm Calm - N/A   Partly Cloudy
7:56 PM 30.2 °F - 24.8 °F 80% 30.27 in 10.0 mi Calm Calm - N/A   Clear
8:16 PM 30.2 °F - 24.8 °F 80% 30.27 in 10.0 mi Calm Calm - N/A   Clear
8:36 PM 30.2 °F - 24.8 °F 80% 30.27 in 10.0 mi Calm Calm - N/A   Clear
8:56 PM 28.4 °F - 23.0 °F 80% 30.27 in 10.0 mi Calm Calm - N/A   Clear
9:16 PM 28.4 °F 21.2 °F 21.2 °F 74% 30.27 in 10.0 mi SE 6.9 mph - N/A   Clear
9:36 PM 28.4 °F 24.6 °F 21.2 °F 74% 30.27 in 10.0 mi SSE 3.5 mph - N/A   Clear
9:56 PM 28.4 °F 24.6 °F 19.4 °F 69% 30.27 in 10.0 mi ESE 3.5 mph - N/A   Clear
10:16 PM 28.4 °F - 19.4 °F 69% 30.28 in 10.0 mi Calm Calm - N/A   Clear
10:36 PM 26.6 °F - 19.4 °F 74% 30.28 in 10.0 mi Calm Calm - N/A   Clear
10:56 PM 28.4 °F - 19.4 °F 69% 30.28 in 10.0 mi Calm Calm - N/A   Clear
11:16 PM 26.6 °F 22.6 °F 19.4 °F 74% 30.28 in 10.0 mi WSW 3.5 mph - N/A   Clear
11:36 PM 26.6 °F 21.2 °F 19.4 °F 74% 30.28 in 10.0 mi WNW 4.6 mph - N/A   Clear
11:56 PM 28.4 °F 23.3 °F 19.4 °F 69% 30.28 in 10.0 mi WNW 4.6 mph - N/A   Clear